User: anonymous   Login
Location: Erskine
(52.3216°N, 112.8806°W)
Time: 11:03:02
(UTC+00:00)
Language:

Oscar 11 - Orbit

View from above orbital plane
View from above orbital plane
View from above satellite
View from above satellite

Ground track
Ground track

The orbit data is extracted from the following two-line orbital elements,

1 14781U 84021B   23338.70528850  .00002217  00000-0  26138-3 0  9995
2 14781  97.6808 309.3171 0008462  12.8099 347.3331 14.85709279119450
Epoch (UTC): 04 December 2023 16:55:36
Eccentricity: 0.0008462
inclination: 97.6808°
perigee height: 605 km
apogee height: 617 km
right ascension of ascending node: 309.3171°
argument of perigee: 12.8099°
revolutions per day: 14.85709279
mean anomaly at epoch: 347.3331°
orbit number at epoch: 11945

The dashed part of the orbit path shows where the satellite is in the earth's shadow,  

DLR